Date String (YYYY-MM-DD hh:mm:ss) UTC,Instrument flags,absolute air pressure of the measurement (hPa),sample flow rate (lpm),inlet stack bypass flow (lpm),air temperature of the measurement (°C),ambient temperature measured by the external sensor (°C),aerosol sample conditioner tube jacket temperature (°C),OPC LED temperature (°C),internal box temperature (°C),relative humidity of the measurement (%),span deviation,mass concentration of particles derived from Lorenz-Mie calculation of OPC scattering (μg/m³),mass concentration of particles derived from Lorenz-Mie calculation of OPC scattering (μg/m³),mass concentration of particles derived from Lorenz-Mie calculation of OPC scattering (μg/m³)
DateTimeUTC,F1_M11,P_M11,Q1_M11,Q2_M11,T1_M11,T2_M11,T3_M11,T4_M11,T5_M11,U1_M11,ZSPAN_M11,X2_M11,X0_M11,X1_M11
2023-12-25 21:00:00,SystemResetWarning,0827.0,5.01,000.00,019.1,018.3,000.0,027.5,020.1,10.4,0000.0,0003.62,0007.44,0003.49
2023-12-25 21:01:00,SystemResetWarning,0827.0,5.01,000.00,019.0,018.3,000.0,027.5,020.1,10.4,0000.0,0003.61,0007.41,0003.49
2023-12-25 21:02:00,SystemResetWarning,0827.0,5.00,000.00,019.0,018.3,000.0,027.4,020.1,10.6,0000.0,0003.59,0007.42,0003.48
2023-12-25 21:03:00,SystemResetWarning,0827.0,4.98,000.00,019.0,018.2,000.0,027.4,020.1,10.8,0000.0,0003.60,0007.49,0003.48
2023-12-25 21:04:00,SystemResetWarning,0827.0,5.01,000.00,019.0,018.2,000.0,027.4,020.2,10.8,0000.0,0003.62,0007.54,0003.48
2023-12-25 21:05:00,SystemResetWarning,0827.0,5.00,000.00,019.0,018.3,000.0,027.4,020.1,10.8,0000.0,0003.63,0006.35,0003.49
2023-12-25 21:06:00,SystemResetWarning,0826.9,5.00,000.00,019.0,018.3,000.0,027.4,020.2,10.4,0000.0,0003.62,0006.21,0003.48
2023-12-25 21:07:00,SystemResetWarning,0826.9,4.99,000.00,019.0,018.3,000.0,027.4,020.2,10.3,0000.0,0003.62,0006.20,0003.48
2023-12-25 21:08:00,SystemResetWarning,0826.9,5.00,000.00,019.0,018.3,000.0,027.4,020.2,10.4,0000.0,0003.61,0006.35,0003.47
2023-12-25 21:09:00,SystemResetWarning,0826.9,5.00,000.00,019.0,018.3,000.0,027.4,020.2,10.6,0000.0,0003.61,0005.46,0003.47
2023-12-25 21:10:00,SystemResetWarning,0826.9,5.00,000.00,019.0,018.3,000.0,027.4,020.2,10.8,0000.0,0003.61,0005.30,0003.46
2023-12-25 21:11:00,SystemResetWarning,0826.9,5.00,000.00,019.0,018.2,000.0,027.4,020.1,10.5,0000.0,0003.62,0005.27,0003.46
2023-12-25 21:12:00,SystemResetWarning,0826.9,5.00,000.00,019.0,018.1,000.0,027.4,020.0,10.7,0000.0,0003.62,0005.28,0003.46
2023-12-25 21:13:00,SystemResetWarning,0826.9,5.00,000.00,019.0,018.1,000.0,027.3,020.0,10.4,0000.0,0003.63,0005.28,0003.47
2023-12-25 21:14:00,SystemResetWarning,0826.9,5.00,000.00,018.9,018.0,000.0,027.3,020.0,10.2,0000.0,0003.62,0005.15,0003.47
2023-12-25 21:15:00,SystemResetWarning,0826.9,5.00,000.00,018.9,018.0,000.0,027.3,020.0,10.2,0000.0,0003.63,0005.13,0003.48
2023-12-25 21:16:00,SystemResetWarning,0826.9,5.00,000.00,018.9,018.0,000.0,027.3,020.0,10.3,0000.0,0003.61,0005.00,0003.48
2023-12-25 21:17:00,SystemResetWarning,0826.9,5.00,000.00,018.9,017.9,000.0,027.3,020.0,10.4,0000.0,0003.61,0004.97,0003.48
2023-12-25 21:18:00,SystemResetWarning,0826.9,5.01,000.00,018.9,017.9,000.0,027.3,020.0,10.5,0000.0,0003.62,0004.99,0003.48
2023-12-25 21:19:00,SystemResetWarning,0826.9,5.01,000.00,018.9,017.9,000.0,027.3,020.0,10.5,0000.0,0003.64,0005.66,0003.50
2023-12-25 21:20:00,SystemResetWarning,0826.9,5.00,000.00,018.9,017.8,000.0,027.3,020.0,10.4,0000.0,0003.66,0005.94,0003.51
2023-12-25 21:21:00,SystemResetWarning,0826.9,5.00,000.00,018.9,017.8,000.0,027.3,020.0,10.4,0000.0,0003.65,0005.88,0003.52
2023-12-25 21:22:00,SystemResetWarning,0826.9,4.99,000.00,018.9,017.8,000.0,027.3,020.0,10.5,0000.0,0003.65,0005.85,0003.52
2023-12-25 21:23:00,SystemResetWarning,0826.9,5.00,000.00,018.8,017.8,000.0,027.3,020.0,10.9,0000.0,0003.63,0005.81,0003.52
2023-12-25 21:24:00,SystemResetWarning,0826.8,5.00,000.00,018.8,017.8,000.0,027.3,020.0,11.1,0000.0,0003.62,0005.77,0003.51
2023-12-25 21:25:00,SystemResetWarning,0826.8,5.00,000.00,018.8,017.8,000.0,027.3,020.0,10.8,0000.0,0003.63,0005.80,0003.51
2023-12-25 21:26:00,SystemResetWarning,0826.8,5.00,000.00,018.8,017.8,000.0,027.3,020.0,10.9,0000.0,0003.62,0005.76,0003.51
2023-12-25 21:27:00,SystemResetWarning,0826.8,5.00,000.00,018.8,017.8,000.0,027.3,020.0,10.7,0000.0,0003.64,0005.92,0003.51
2023-12-25 21:28:00,SystemResetWarning,0826.8,5.00,000.00,018.8,017.8,000.0,027.3,020.0,10.7,0000.0,0003.65,0005.92,0003.52
2023-12-25 21:29:00,SystemResetWarning,0826.8,5.01,000.00,018.9,017.8,000.0,027.3,020.0,10.7,0000.0,0003.64,0005.87,0003.52
2023-12-25 21:30:00,SystemResetWarning,0826.8,5.00,000.00,018.9,017.8,000.0,027.3,020.0,10.7,0000.0,0003.63,0005.41,0003.51
2023-12-25 21:31:00,SystemResetWarning,0826.8,5.00,000.00,018.9,017.8,000.0,027.3,020.0,10.6,0000.0,0003.61,0004.66,0003.51
2023-12-25 21:32:00,SystemResetWarning,0826.8,4.99,000.00,018.9,017.8,000.0,027.3,020.0,10.5,0000.0,0003.62,0005.64,0003.50
2023-12-25 21:33:00,SystemResetWarning,0826.7,4.99,000.00,018.9,017.9,000.0,027.3,020.0,10.5,0000.0,0003.62,0005.67,0003.51
2023-12-25 21:34:00,SystemResetWarning,0826.7,5.00,000.00,018.9,017.9,000.0,027.3,020.0,10.7,0000.0,0003.64,0005.74,0003.52
2023-12-25 21:35:00,SystemResetWarning,0826.8,5.01,000.00,018.8,017.8,000.0,027.3,020.0,10.7,0000.0,0003.65,0005.75,0003.54
2023-12-25 21:36:00,SystemResetWarning,0826.7,5.01,000.00,018.9,017.8,000.0,027.3,020.0,10.5,0000.0,0003.65,0005.74,0003.54
2023-12-25 21:37:00,SystemResetWarning,0826.8,5.00,000.00,018.8,017.8,000.0,027.3,020.0,10.4,0000.0,0003.66,0005.88,0003.54
2023-12-25 21:38:00,SystemResetWarning,0826.8,5.00,000.00,018.8,017.8,000.0,027.3,020.0,10.5,0000.0,0003.67,0005.91,0003.55
2023-12-25 21:39:00,SystemResetWarning,0826.8,5.00,000.00,018.8,017.8,000.0,027.3,020.0,10.5,0000.0,0003.66,0005.85,0003.55
2023-12-25 21:40:00,SystemResetWarning,0826.8,5.00,000.00,018.8,017.8,000.0,027.3,020.0,10.7,0000.0,0003.68,0005.92,0003.55
2023-12-25 21:41:00,SystemResetWarning,0826.8,5.00,000.00,018.8,017.8,000.0,027.3,020.0,10.5,0000.0,0003.70,0005.98,0003.55
2023-12-25 21:42:00,SystemResetWarning,0826.8,5.00,000.00,018.8,017.8,000.0,027.3,020.0,10.5,0000.0,0003.72,0006.05,0003.55
2023-12-25 21:43:00,SystemResetWarning,0826.8,5.01,000.00,018.8,017.8,000.0,027.3,020.0,10.4,0000.0,0003.73,0005.81,0003.56
2023-12-25 21:44:00,SystemResetWarning,0826.8,5.00,000.00,018.9,017.8,000.0,027.3,020.0,10.8,0000.0,0003.74,0005.18,0003.57
2023-12-25 21:45:00,SystemResetWarning,0826.8,5.00,000.00,018.8,017.8,000.0,027.3,020.0,11.0,0000.0,0003.75,0005.24,0003.57
2023-12-25 21:46:00,SystemResetWarning,0826.8,5.01,000.00,018.8,017.8,000.0,027.3,020.0,10.7,0000.0,0003.76,0005.86,0003.58
2023-12-25 21:47:00,SystemResetWarning,0826.7,5.00,000.00,018.8,017.8,000.0,027.3,020.0,10.6,0000.0,0003.77,0006.73,0003.57
2023-12-25 21:48:00,SystemResetWarning,0826.7,5.00,000.00,018.8,017.8,000.0,027.3,020.0,10.6,0000.0,0003.78,0007.12,0003.59
2023-12-25 21:49:00,SystemResetWarning,0826.7,5.00,000.00,018.8,017.8,000.0,027.3,020.0,10.6,0000.0,0003.78,0007.30,0003.59
2023-12-25 21:50:00,SystemResetWarning,0826.7,5.00,000.00,018.8,017.8,000.0,027.3,020.0,10.4,0000.0,0003.76,0007.68,0003.59
2023-12-25 21:51:00,SystemResetWarning,0826.7,4.99,000.00,018.8,017.8,000.0,027.3,020.0,10.7,0000.0,0003.77,0007.71,0003.60
2023-12-25 21:52:00,SystemResetWarning,0826.6,5.00,000.00,018.8,017.8,000.0,027.3,020.0,10.6,0000.0,0003.78,0007.85,0003.61
2023-12-25 21:53:00,SystemResetWarning,0826.6,4.99,000.00,018.8,017.7,000.0,027.3,020.0,10.9,0000.0,0003.82,0008.02,0003.63
2023-12-25 21:54:00,SystemResetWarning,0826.6,5.00,000.00,018.8,017.7,000.0,027.3,020.0,10.9,0000.0,0003.83,0008.03,0003.65
2023-12-25 21:55:00,SystemResetWarning,0826.6,5.01,000.00,018.8,017.7,000.0,027.3,020.0,10.7,0000.0,0003.87,0008.07,0003.69
2023-12-25 21:56:00,SystemResetWarning,0826.6,5.00,000.00,018.8,017.7,000.0,027.3,020.0,10.8,0000.0,0003.92,0008.11,0003.72
2023-12-25 21:57:00,SystemResetWarning,0826.6,5.00,000.00,018.8,017.7,000.0,027.3,020.0,10.8,0000.0,0003.97,0007.91,0003.77
2023-12-25 21:58:00,SystemResetWarning,0826.6,5.00,000.00,018.8,017.7,000.0,027.3,020.0,10.7,0000.0,0003.99,0007.45,0003.81
2023-12-25 21:59:00,SystemResetWarning,0826.6,5.01,000.00,018.8,017.7,000.0,027.3,020.0,10.9,0000.0,0004.03,0007.24,0003.85
